TAM3015 SBBR-SBSP

Flight info

Callsign TAM3015
Flight time N/A
Altitude 33000
Route GEBEP UZ2 ENTIT
Aircraft A320/M-SDE3FGHIRWY/LB1

Departure

Time N/A
Airport Presidente Juscelino Kubitschek International Airport (SBBR)

Arrival

Time 2026-05-05 01:33
Airport Congonhas–Deputado Freitas Nobre Airport (SBSP)
Time Latitude Longitude Altitude Speed Heading
2026-05-05 00:33 -17.19179 -47.50362 25879 ft 460 kts 166°
2026-05-05 00:33 -17.22264 -47.49419 26160 ft 462 kts 166°
2026-05-05 00:33 -17.25303 -47.48487 26541 ft 460 kts 166°
2026-05-05 00:33 -17.28376 -47.47547 26932 ft 459 kts 167°
2026-05-05 00:34 -17.31439 -47.46612 27303 ft 458 kts 167°
2026-05-05 00:34 -17.34510 -47.45678 27690 ft 458 kts 167°
2026-05-05 00:34 -17.37576 -47.44741 28074 ft 457 kts 167°
2026-05-05 00:34 -17.40599 -47.43814 28477 ft 457 kts 167°
2026-05-05 00:35 -17.43662 -47.42876 28888 ft 456 kts 167°
2026-05-05 00:35 -17.46712 -47.41942 29327 ft 455 kts 167°
2026-05-05 00:35 -17.49776 -47.41127 29776 ft 451 kts 174°
2026-05-05 00:35 -17.52849 -47.40634 30199 ft 450 kts 175°
2026-05-05 00:36 -17.55945 -47.40150 30583 ft 449 kts 175°
2026-05-05 00:36 -17.59035 -47.39668 30983 ft 447 kts 175°
2026-05-05 00:36 -17.62111 -47.39189 31400 ft 446 kts 176°
2026-05-05 00:36 -17.65176 -47.38709 31821 ft 444 kts 176°
2026-05-05 00:37 -17.68185 -47.38236 32228 ft 442 kts 176°
2026-05-05 00:37 -17.71227 -47.37757 32655 ft 441 kts 176°
2026-05-05 00:37 -17.74256 -47.37280 33041 ft 440 kts 176°
2026-05-05 00:37 -17.77289 -47.36803 33149 ft 442 kts 176°
2026-05-05 00:38 -17.80364 -47.36322 33168 ft 449 kts 176°
2026-05-05 00:38 -17.86619 -47.35344 33166 ft 455 kts 176°
2026-05-05 00:39 -17.92857 -47.34357 33166 ft 456 kts 176°
2026-05-05 00:39 -17.99150 -47.33358 33166 ft 458 kts 176°
2026-05-05 00:40 -18.05465 -47.32362 33167 ft 458 kts 176°
2026-05-05 00:40 -18.11738 -47.31377 33166 ft 458 kts 176°
2026-05-05 00:41 -18.18039 -47.30383 33176 ft 458 kts 176°
2026-05-05 00:41 -18.24361 -47.29383 33168 ft 458 kts 176°
2026-05-05 00:42 -18.30686 -47.28382 33165 ft 459 kts 176°
2026-05-05 00:42 -18.36970 -47.27384 33168 ft 459 kts 176°
2026-05-05 00:43 -18.43297 -47.26378 33188 ft 459 kts 176°
2026-05-05 00:43 -18.49628 -47.25376 33183 ft 459 kts 176°
2026-05-05 00:44 -18.55908 -47.24378 33182 ft 459 kts 176°
2026-05-05 00:44 -18.61167 -47.23540 33189 ft 459 kts 176°
2026-05-05 00:45 -18.67488 -47.22530 33193 ft 459 kts 176°
2026-05-05 00:45 -18.74846 -47.21359 33196 ft 459 kts 176°
2026-05-05 00:46 -18.81162 -47.20362 33195 ft 459 kts 176°
2026-05-05 00:46 -18.87492 -47.19357 33195 ft 459 kts 176°
2026-05-05 00:47 -18.93766 -47.18343 33209 ft 459 kts 176°
2026-05-05 00:47 -19.00101 -47.17327 33201 ft 458 kts 176°
2026-05-05 00:48 -19.06391 -47.16331 33202 ft 459 kts 176°
2026-05-05 00:48 -19.12672 -47.15329 33193 ft 459 kts 176°
2026-05-05 00:49 -19.18994 -47.14334 33195 ft 458 kts 177°
2026-05-05 00:49 -19.25328 -47.13443 33196 ft 458 kts 178°
2026-05-05 00:50 -19.30596 -47.12728 33221 ft 458 kts 177°
2026-05-05 00:50 -19.37956 -47.11703 33244 ft 458 kts 177°
2026-05-05 00:51 -19.43212 -47.10947 33261 ft 458 kts 177°
2026-05-05 00:51 -19.50562 -47.09888 33273 ft 458 kts 177°
2026-05-05 00:52 -19.55859 -47.09131 33279 ft 458 kts 177°
2026-05-05 00:52 -19.62179 -47.08233 33292 ft 458 kts 177°
2026-05-05 00:53 -19.68462 -47.07340 33272 ft 457 kts 178°
2026-05-05 00:53 -19.74775 -47.06444 33220 ft 457 kts 178°
2026-05-05 00:54 -19.81087 -47.05542 33223 ft 457 kts 178°
2026-05-05 00:54 -19.87395 -47.04634 33242 ft 457 kts 178°
2026-05-05 00:55 -19.93658 -47.03739 33237 ft 456 kts 178°
2026-05-05 00:55 -19.99951 -47.02842 33235 ft 456 kts 178°
2026-05-05 00:56 -20.06244 -47.01943 33220 ft 455 kts 178°
2026-05-05 00:56 -20.12508 -47.01047 33235 ft 455 kts 178°
2026-05-05 00:57 -20.18795 -47.00143 33224 ft 454 kts 178°
2026-05-05 00:57 -20.25052 -46.99236 33217 ft 454 kts 178°
2026-05-05 00:58 -20.31277 -46.98349 33214 ft 453 kts 178°
2026-05-05 00:58 -20.37535 -46.97456 33228 ft 453 kts 178°
2026-05-05 00:59 -20.43795 -46.96549 33214 ft 453 kts 178°
2026-05-05 00:59 -20.50007 -46.95652 33210 ft 453 kts 178°
2026-05-05 01:00 -20.56272 -46.94741 33232 ft 453 kts 178°
2026-05-05 01:00 -20.62491 -46.93843 33231 ft 452 kts 178°
2026-05-05 01:01 -20.68734 -46.92950 33227 ft 451 kts 178°
2026-05-05 01:01 -20.74926 -46.92058 33223 ft 451 kts 178°
2026-05-05 01:02 -20.81155 -46.91142 33238 ft 451 kts 178°
2026-05-05 01:02 -20.87365 -46.90167 33233 ft 451 kts 178°
2026-05-05 01:03 -20.93581 -46.89177 33229 ft 451 kts 178°
2026-05-05 01:03 -20.99759 -46.88207 33227 ft 450 kts 178°
2026-05-05 01:04 -21.05978 -46.87240 33236 ft 450 kts 178°
2026-05-05 01:04 -21.15252 -46.85786 33227 ft 449 kts 178°
2026-05-05 01:05 -21.21446 -46.84815 33219 ft 449 kts 178°
2026-05-05 01:05 -21.27603 -46.83852 33225 ft 448 kts 178°
2026-05-05 01:06 -21.33791 -46.82874 33214 ft 448 kts 178°
2026-05-05 01:06 -21.39966 -46.81903 33211 ft 448 kts 178°
2026-05-05 01:07 -21.46122 -46.80937 33215 ft 448 kts 178°
2026-05-05 01:07 -21.52313 -46.79968 33214 ft 448 kts 178°
2026-05-05 01:08 -21.58459 -46.79007 33208 ft 448 kts 178°
2026-05-05 01:08 -21.64650 -46.78027 33208 ft 449 kts 178°
2026-05-05 01:09 -21.70802 -46.77053 33210 ft 448 kts 178°
2026-05-05 01:09 -21.76991 -46.76078 33222 ft 449 kts 178°
2026-05-05 01:10 -21.83141 -46.75102 33216 ft 449 kts 178°
2026-05-05 01:10 -21.89338 -46.74119 33220 ft 449 kts 178°
2026-05-05 01:11 -21.95523 -46.73141 33220 ft 448 kts 178°
2026-05-05 01:11 -22.01668 -46.72174 33227 ft 448 kts 178°
2026-05-05 01:12 -22.07851 -46.71190 33223 ft 448 kts 178°
2026-05-05 01:12 -22.14033 -46.70205 33215 ft 448 kts 178°
2026-05-05 01:13 -22.20212 -46.69227 33233 ft 449 kts 178°
2026-05-05 01:13 -22.23269 -46.68743 33119 ft 449 kts 178°
2026-05-05 01:13 -22.26374 -46.68250 32158 ft 453 kts 178°
2026-05-05 01:14 -22.29512 -46.67753 31211 ft 456 kts 178°
2026-05-05 01:14 -22.32670 -46.67250 30183 ft 460 kts 178°
2026-05-05 01:14 -22.35811 -46.66979 29066 ft 456 kts 186°
2026-05-05 01:14 -22.38945 -46.67283 28051 ft 449 kts 195°
2026-05-05 01:15 -22.41975 -46.68150 26897 ft 447 kts 204°
2026-05-05 01:15 -22.44736 -46.69564 26290 ft 444 kts 213°
2026-05-05 01:15 -22.47292 -46.71456 25592 ft 446 kts 221°
2026-05-05 01:15 -22.49605 -46.73714 24884 ft 448 kts 225°
2026-05-05 01:16 -22.51909 -46.76033 24226 ft 450 kts 224°
2026-05-05 01:16 -22.54172 -46.78316 23527 ft 449 kts 224°
2026-05-05 01:16 -22.56455 -46.80621 22910 ft 446 kts 224°
2026-05-05 01:16 -22.58720 -46.82910 22651 ft 445 kts 224°
2026-05-05 01:17 -22.60980 -46.85194 22393 ft 444 kts 224°
2026-05-05 01:17 -22.63239 -46.87482 22138 ft 443 kts 224°
2026-05-05 01:17 -22.65470 -46.89746 21888 ft 442 kts 224°
2026-05-05 01:17 -22.67786 -46.91940 21635 ft 441 kts 218°
2026-05-05 01:18 -22.70351 -46.93781 21393 ft 441 kts 214°
2026-05-05 01:18 -22.72952 -46.95546 21148 ft 440 kts 214°
2026-05-05 01:18 -22.75513 -46.97282 20923 ft 439 kts 214°
2026-05-05 01:18 -22.78068 -46.99018 20670 ft 423 kts 214°
2026-05-05 01:19 -22.80520 -47.00687 20430 ft 407 kts 214°
2026-05-05 01:19 -22.82851 -47.02278 20191 ft 394 kts 214°
2026-05-05 01:19 -22.85150 -47.03847 19968 ft 383 kts 214°
2026-05-05 01:19 -22.87366 -47.05360 19743 ft 374 kts 214°
2026-05-05 01:20 -22.89542 -47.06846 19513 ft 364 kts 214°
2026-05-05 01:20 -22.91662 -47.08286 19288 ft 355 kts 214°
2026-05-05 01:20 -22.93727 -47.09681 19162 ft 342 kts 214°
2026-05-05 01:20 -22.95718 -47.11027 19049 ft 331 kts 214°
2026-05-05 01:21 -22.97651 -47.12333 18819 ft 324 kts 214°
2026-05-05 01:21 -22.99547 -47.13595 18494 ft 322 kts 210°
2026-05-05 01:21 -23.01619 -47.14523 18082 ft 323 kts 198°
2026-05-05 01:21 -23.03840 -47.14931 17673 ft 325 kts 185°
2026-05-05 01:22 -23.06072 -47.14792 17293 ft 326 kts 173°
2026-05-05 01:22 -23.08301 -47.14301 16904 ft 326 kts 171°
2026-05-05 01:22 -23.10518 -47.13807 16518 ft 324 kts 171°
2026-05-05 01:22 -23.12724 -47.13316 16146 ft 322 kts 171°
2026-05-05 01:23 -23.14895 -47.12837 15791 ft 320 kts 171°
2026-05-05 01:23 -23.17078 -47.12359 15442 ft 318 kts 171°
2026-05-05 01:23 -23.19251 -47.11882 15083 ft 317 kts 171°
2026-05-05 01:23 -23.21410 -47.11407 14721 ft 315 kts 171°
2026-05-05 01:24 -23.23530 -47.10940 14392 ft 313 kts 171°
2026-05-05 01:24 -23.25678 -47.10467 14062 ft 311 kts 171°
2026-05-05 01:24 -23.27786 -47.10006 13701 ft 310 kts 171°
2026-05-05 01:24 -23.29893 -47.09546 13217 ft 306 kts 171°
2026-05-05 01:25 -23.31960 -47.09095 12534 ft 305 kts 171°
2026-05-05 01:25 -23.34042 -47.08638 11873 ft 304 kts 171°
2026-05-05 01:25 -23.36113 -47.08180 11239 ft 302 kts 171°
2026-05-05 01:25 -23.38174 -47.07726 10618 ft 301 kts 171°
2026-05-05 01:26 -23.40188 -47.07100 9994 ft 301 kts 156°
2026-05-05 01:26 -23.41904 -47.05837 9340 ft 301 kts 136°
2026-05-05 01:26 -23.43134 -47.03997 8910 ft 302 kts 116°
2026-05-05 01:26 -23.43814 -47.01845 8615 ft 299 kts 106°
2026-05-05 01:27 -23.44385 -46.99662 8330 ft 297 kts 105°
2026-05-05 01:27 -23.44948 -46.97501 8057 ft 296 kts 105°
2026-05-05 01:27 -23.45501 -46.95365 7793 ft 295 kts 106°
2026-05-05 01:27 -23.46059 -46.93213 7504 ft 294 kts 106°
2026-05-05 01:28 -23.46617 -46.91062 7047 ft 294 kts 106°
2026-05-05 01:28 -23.47167 -46.88951 6702 ft 283 kts 106°
2026-05-05 01:28 -23.47687 -46.86952 6463 ft 271 kts 106°
2026-05-05 01:28 -23.48193 -46.85005 6207 ft 264 kts 106°
2026-05-05 01:29 -23.48692 -46.83087 5963 ft 260 kts 106°
2026-05-05 01:29 -23.49182 -46.81207 5726 ft 257 kts 105°
2026-05-05 01:29 -23.49659 -46.79367 5496 ft 253 kts 105°
2026-05-05 01:29 -23.50131 -46.77542 5260 ft 243 kts 105°
2026-05-05 01:30 -23.50580 -46.75810 5045 ft 235 kts 105°
2026-05-05 01:30 -23.51149 -46.74161 4823 ft 231 kts 122°
2026-05-05 01:30 -23.52198 -46.72900 4725 ft 220 kts 144°
2026-05-05 01:30 -23.53441 -46.72019 4556 ft 212 kts 147°
2026-05-05 01:31 -23.54677 -46.71170 4281 ft 205 kts 147°
2026-05-05 01:31 -23.55844 -46.70366 4031 ft 190 kts 146°
2026-05-05 01:31 -23.56893 -46.69642 3825 ft 167 kts 146°
2026-05-05 01:31 -23.57836 -46.68990 3616 ft 156 kts 145°
2026-05-05 01:32 -23.58740 -46.68365 3425 ft 152 kts 146°
2026-05-05 01:32 -23.59627 -46.67751 3222 ft 153 kts 147°
2026-05-05 01:32 -23.60524 -46.67135 3014 ft 151 kts 147°
2026-05-05 01:32 -23.61406 -46.66521 2777 ft 149 kts 146°
2026-05-05 01:33 -23.62281 -46.65914 2616 ft 146 kts 147°
2026-05-05 01:33 -23.62969 -46.65434 2633 ft 80 kts 147°
2026-05-05 01:33 -23.63217 -46.65264 2641 ft 24 kts 147°
2026-05-05 01:33 -23.63359 -46.65200 2642 ft 22 kts 184°
2026-05-05 01:34 -23.63383 -46.65292 2644 ft 15 kts 316°
2026-05-05 01:34 -23.63308 -46.65348 2643 ft 13 kts 327°
2026-05-05 01:34 -23.63218 -46.65409 2640 ft 17 kts 328°
2026-05-05 01:34 -23.63112 -46.65483 2636 ft 18 kts 327°
2026-05-05 01:35 -23.62992 -46.65532 2629 ft 18 kts 343°
2026-05-05 01:35 -23.62899 -46.65593 2626 ft 10 kts 327°
2026-05-05 01:35 -23.62842 -46.65633 2626 ft 6 kts 327°
2026-05-05 01:35 -23.62797 -46.65665 2624 ft 10 kts 327°
2026-05-05 01:36 -23.62724 -46.65715 2621 ft 15 kts 327°
2026-05-05 01:36 -23.62638 -46.65775 2618 ft 8 kts 327°
2026-05-05 01:36 -23.62639 -46.65820 2617 ft 7 kts 238°
2026-05-05 01:36 -23.62655 -46.65848 2617 ft 2 kts 238°
2026-05-05 01:37 -23.62658 -46.65854 2617 ft 0 kts 238°
2026-05-05 01:37 -23.62661 -46.65858 2617 ft 1 kts 238°
2026-05-05 01:37 -23.62662 -46.65861 2617 ft 0 kts 238°